Printer-friendly version
Follow the MPC on Twitter Follow the MPC on Facebook The MPC blog
Minor Planet Center

MPEC 2010-M68 : 2010 MN51

The following Minor Planet Electronic Circular may be linked-to from your own Web pages, but must not otherwise be redistributed electronically.

A form allowing access to any MPEC is at the bottom of this page.


Read MPEC 2010-M67 Read MPEC 2010-M69


M.P.E.C. 2010-M68                                Issued 2010 June 29, 15:27 UT

     The Minor Planet Electronic Circulars contain information on unusual
         minor planets and routine data on comets.  They are published
   on behalf of Commission 20 of the International Astronomical Union by the
          Minor Planet Center, Smithsonian Astrophysical Observatory,
                          Cambridge, MA 02138, U.S.A.

             Prepared using the Tamkin Foundation Computer Network

                              MPC@CFA.HARVARD.EDU
       URL http://www.minorplanetcenter.org/iau/mpc.html  ISSN 1523-6714

                                   2010 MN51

Observations:
     K10M51N* C2010 06 23.43975 00 14 08.48 +04 28 20.8          20.4 V EM068G96
     K10M51N  C2010 06 23.44310 00 14 08.95 +04 28 17.4          20.3 V EM068G96
     K10M51N  C2010 06 23.44652 00 14 09.45 +04 28 13.8          20.7 V EM068G96
     K10M51N  C2010 06 23.44988 00 14 09.88 +04 28 09.9          20.4 V EM068G96
     K10M51N  C2010 06 24.37191 00 16 21.15 +04 11 56.1          20.0 V EM068G96
     K10M51N  C2010 06 24.37248 00 16 21.32 +04 11 56.0          20.7 V EM068G96
     K10M51N  C2010 06 24.37306 00 16 21.42 +04 11 55.5          20.7 V EM068G96
     K10M51N  C2010 06 24.37362 00 16 21.45 +04 11 55.2          20.7 V EM068G96
     K10M51N 6C2010 06 25.56747 00 19 10.33 +03 50 21.5          20.3 R EM068F65
     K10M51N 6C2010 06 25.57155 00 19 10.89 +03 50 17.1          20.8 R EM068F65
     K10M51N  C2010 06 29.34622200 27 58.13 +02 37 29.7          20.4 V EM068H21
     K10M51N  C2010 06 29.35793200 27 59.70 +02 37 15.9                 EM068H21
     K10M51N  C2010 06 29.36967500 28 01.35 +02 37 02.5          20.6 V EM068H21

Observer details:
F65 Haleakala-Faulkes Telescope North.  Observer R. Miles.  2.0-m f/10.0
    Ritchey-Chretien + CCD.
G96 Mt. Lemmon Survey.  Observer A. R. Gibbs.  Measurers J. D. Ahern,
    E. C. Beshore, A. Boattini, G. J. Garradd, A. R. Gibbs, A. D. Grauer,
    R. E. Hill, R. A. Kowalski, S. M. Larson, R. H. McNaught.  1.5-m reflector
    + CCD.
H21 Astronomical Research Observatory, Westfield.  Observer R. Holmes.
    Measurer S. Foglia.

Orbital elements:
2010 MN51                                                Earth MOID = 0.3314 AU
Epoch 2010 July 23.0 TT = JDT 2455400.5                 MPC
M  53.25831              (2000.0)            P               Q
n   0.48282484     Peri.  115.18899     -0.16673953     +0.91639454
a   1.6091986      Node   139.31353     -0.97784046     -0.20107012
e   0.2443600      Incl.   33.93064     +0.12659373     -0.34610960
P   2.04           H   18.2           G   0.15           U   9
Residuals in seconds of arc
100623 G96  0.3-  0.2+    100624 G96  0.4+  0.1-    100629 H21  0.2-  0.5-
100623 G96  0.3-  0.3+    100624 G96  0.7+  0.0     100629 H21  0.6-  0.1-
100623 G96  0.0   0.2+    100624 G96  0.0   0.3+    100629 H21  0.2+  0.7+
100623 G96  0.6-  0.2-    100625 F65  0.5+  0.1-
100624 G96  0.9-  0.6-    100625 F65  0.4+  0.0

Ephemeris:
2010 MN51                a,e,i = 1.61, 0.24, 34                  q = 1.2160
Date    TT    R. A. (2000) Decl.     Delta      r     Elong.  Phase     V
2010 06 23    00 13.09   +04 36.0    0.958    1.353    86.5    48.6    20.6
2010 07 03    00 36.29   +01 20.5    0.905    1.384    92.0    47.2    20.5
2010 07 13    00 58.00   -02 46.9    0.854    1.416    98.0    45.3    20.3
2010 07 23    01 17.71   -07 50.1    0.810    1.450   104.5    42.7    20.2
2010 08 02    01 34.84   -13 47.0    0.775    1.483   111.2    39.6    20.1
2010 08 12    01 48.59   -20 27.6    0.753    1.518   117.6    36.3    20.0
2010 08 22    01 58.05   -27 29.8    0.747    1.552   123.1    33.1    19.9
2010 09 01    02 02.37   -34 22.7    0.758    1.586   126.9    30.6    19.9
2010 09 11    02 00.85   -40 32.7    0.787    1.619   128.6    29.1    20.0
2010 09 21    01 53.50   -45 30.0    0.831    1.651   128.0    28.6    20.1
2010 10 01    01 41.50   -48 56.9    0.890    1.683   125.6    28.9    20.3
2010 10 11    01 27.16   -50 48.5    0.959    1.714   122.1    29.6    20.6
2010 10 21    01 13.47   -51 11.8    1.038    1.743   118.0    30.3    20.8
2010 10 31    01 02.83   -50 22.7    1.123    1.771   113.5    30.9    21.0
2010 11 10    00 56.44   -48 38.4    1.214    1.798   108.9    31.4    21.2
2010 11 20    00 54.50   -46 14.8    1.308    1.823   104.2    31.7    21.4
2010 11 30    00 56.54   -43 24.7    1.405    1.847    99.6    31.8    21.6
2010 12 10    01 01.88   -40 17.0    1.504    1.869    95.1    31.7    21.8
2010 12 20    01 09.89   -36 58.6    1.604    1.890    90.6    31.4    21.9
2010 12 30    01 20.01   -33 34.4    1.704    1.909    86.1    30.9    22.1
2011 01 09    01 31.81   -30 07.7    1.804    1.926    81.7    30.3    22.2
2011 01 19    01 44.96   -26 41.7    1.903    1.941    77.3    29.6    22.3
2011 01 29    01 59.21   -23 18.4    2.001    1.955    73.0    28.8    22.4
2011 02 08    02 14.38   -19 59.7    2.098    1.967    68.7    27.8    22.5
2011 02 18    02 30.35   -16 47.2    2.191    1.978    64.5    26.8    22.6
2011 02 28    02 47.00   -13 42.3    2.282    1.986    60.2    25.7    22.7
2011 03 10    03 04.26   -10 46.1    2.369    1.993    56.1    24.4    22.7
2011 03 20    03 22.08   -07 59.5    2.452    1.998    51.9    23.1    22.7

Carl W. Hergenrother         (C) Copyright 2010 MPC           M.P.E.C. 2010-M68

Read MPEC 2010-M67 Read MPEC 2010-M69


MPEC number:

Enter an MPEC number in one of the following forms:

  • 1997-B01 (the full form)
  • J97B01 (the packed version of the full form)
  • B01 (the abbreviated form)

Valid HTML 4.01!